Location: Buch
(50.1863°N, 11.0141°E)
Time: 23:32:42
(UTC+00:00)

NOSS 8 (H) - Pass Details

Date: 18 January 2020
Orbit: 393 x 1784 km, 63.3° (Epoch: 23 February)

Event Time Altitude Azimuth Distance (km) Brightness Sun altitude
Exits shadow 05:49:20 11° 239° (WSW) 1,406 6.5 -12.1°
Maximum altitude 05:52:15 53° 318° (NW) 495 4.3 -11.7°
Drops below altitude 10° 05:55:23 10° 37° (NE) 1,509 7.3 -11.2°
Sets 05:57:37 0° 42° (NE) 2,471 8.5 -10.9°
